FW9843 Weather Reports


Display with metric or nautical units.
time (UTC)temp
F
wind
direction
speed
MPH
gust
MPH
rain 1hr
in
rain 24hr
in
rain mn
in
humidity
%
barometer
mb
20210921074301 70 305 0.0 1.0 0.00 1.97 0.06 98 1017.2
20210921073800 70 305 0.0 1.0 0.01 1.97 0.06 98 1017.1
20210921073258 70 305 0.0 1.0 0.01 1.97 0.06 98 1017.1
20210921072750 70 305 0.0 1.0 0.01 1.97 0.06 98 1017.2
20210921072249 70 305 0.0 1.0 0.01 1.97 0.06 98 1017.2
20210921071747 70 302 0.0 0.0 0.02 1.97 0.06 98 1017.4
20210921071239 70 302 0.0 0.0 0.02 1.97 0.06 98 1017.4
20210921070731 70 302 0.0 0.0 0.02 1.97 0.06 98 1017.4
20210921070230 70 302 0.0 0.0 0.02 1.97 0.06 98 1017.4
20210921065731 70 302 0.0 1.0 0.03 1.97 0.06 98 1017.5
20210921065230 70 302 0.0 1.0 0.03 1.97 0.06 98 1017.6
20210921064728 70 302 0.0 1.0 0.03 1.97 0.06 98 1017.6
20210921064227 70 302 0.0 1.0 0.04 1.97 0.06 98 1017.6
20210921063725 70 300 0.0 0.0 0.03 1.96 0.05 98 1017.5
20210921063225 70 300 0.0 0.0 0.03 1.96 0.05 98 1017.7
20210921062716 70 300 0.0 0.0 0.03 1.96 0.05 98 1017.7
20210921062215 70 300 0.0 0.0 0.03 1.96 0.05 98 1017.6
20210921061713 70 300 0.0 0.0 0.02 1.95 0.04 98 1017.5
20210921061213 70 300 0.0 0.0 0.03 1.95 0.04 98 1017.5
20210921060709 69 300 0.0 0.0 0.03 1.95 0.04 98 1017.5
20210921060208 69 300 0.0 0.0 0.03 1.95 0.04 98 1017.5
20210921055704 69 300 0.0 0.0 0.02 1.94 0.03 98 1017.5
20210921055203 69 300 0.0 1.0 0.02 1.94 0.03 98 1017.6
20210921054703 69 300 0.0 1.0 0.02 1.94 0.03 98 1017.6
20210921054203 69 300 0.0 0.0 0.01 1.93 0.02 98 1017.6
20210921053654 69 300 0.0 0.0 0.01 1.93 0.02 98 1017.7
20210921053153 69 300 0.0 0.0 0.01 1.93 0.02 98 1017.8
20210921052652 69 300 0.0 0.0 0.01 1.93 0.02 98 1017.7
20210921052151 69 300 0.0 0.0 0.01 1.93 0.02 98 1017.8
20210921051643 69 300 0.0 0.0 0.01 1.93 0.02 98 1017.9
20210921051132 69 300 0.0 0.0 0.01 1.92 0.01 98 1017.8
20210921050631 69 300 0.0 0.0 0.01 1.92 0.01 98 1018.0
20210921050133 69 300 0.0 0.0 0.01 1.92 0.01 98 1017.9
20210921045632 69 300 0.0 0.0 0.01 1.92 0.01 98 1017.8
20210921045130 69 300 0.0 0.0 0.01 1.92 0.01 98 1017.9
20210921044636 69 300 0.0 0.0 0.01 1.92 0.01 98 1017.9
20210921044130 69 300 0.0 0.0 0.01 1.92 0.01 97 1017.9
20210921043632 69 300 0.0 0.0 0.01 1.92 0.01 98 1017.8
20210921043132 69 300 0.0 1.0 0.01 1.92 0.01 98 1017.9
20210921042630 69 300 0.0 1.0 0.01 1.92 0.01 98 1018.1
20210921042129 69 300 0.0 0.0 0.01 1.92 0.01 98 1018.1
20210921041627 69 300 0.0 1.0 0.01 1.92 0.01 98 1018.1
20210921041125 69 300 0.0 1.0 0.00 1.91 0.00 98 1018.1
20210921040623 69 300 0.0 1.0 0.00 1.91 0.00 98 1018.2
20210921040118 69 300 0.0 1.0 0.01 1.91 0.00 98 1018.4
20210921035606 69 326 0.0 0.0 0.01 1.91 1.91 98 1018.2
20210921035109 69 326 0.0 0.0 0.01 1.91 1.91 98 1018.4
20210921034607 69 326 0.0 1.0 0.01 1.91 1.91 98 1018.4
20210921034108 69 326 0.0 1.0 0.01 1.91 1.91 98 1018.2
20210921033606 69 320 0.0 1.0 0.02 1.91 1.91 98 1018.4
20210921033106 69 320 0.0 1.0 0.02 1.91 1.91 98 1018.2
20210921032604 69 275 0.0 1.0 0.02 1.91 1.91 97 1018.4
20210921032104 69 278 0.0 2.0 0.03 1.91 1.91 98 1018.5
20210921031604 69 278 0.0 2.0 0.03 1.91 1.91 97 1018.4
20210921031107 69 201 0.0 1.0 0.03 1.91 1.91 97 1018.6
20210921030607 69 201 0.0 1.0 0.04 1.91 1.91 97 1018.6
20210921030110 69 201 0.0 1.0 0.03 1.90 1.90 97 1018.6
20210921025606 69 201 0.0 1.0 0.03 1.90 1.90 97 1018.5
20210921025105 69 201 0.0 1.0 0.03 1.90 1.90 97 1018.4
20210921024606 69 201 0.0 0.0 0.03 1.90 1.90 97 1018.5
20210921024106 69 201 0.0 0.0 0.04 1.90 1.90 97 1018.5
20210921023606 69 201 0.0 1.0 0.03 1.89 1.89 97 1018.6
20210921023108 69 201 0.0 1.0 0.03 1.89 1.89 97 1018.7
20210921022606 69 201 0.0 1.0 0.03 1.89 1.89 97 1018.7
20210921022106 69 201 0.0 1.0 0.03 1.88 1.88 97 1018.8
20210921021606 69 196 0.0 1.0 0.04 1.88 1.88 97 1018.9
20210921021108 69 196 0.0 1.0 0.04 1.88 1.88 97 1018.8
20210921020607 69 196 0.0 1.0 0.03 1.87 1.87 97 1018.8
20210921020110 69 184 0.0 1.0 0.03 1.87 1.87 97 1018.8
20210921015555 69 269 0.0 1.0 0.03 1.87 1.87 97 1018.8
20210921015048 69 269 0.0 1.0 0.03 1.87 1.87 97 1018.8
20210921014539 69 269 0.0 1.0 0.03 1.87 1.87 97 1018.8
20210921014039 69 47 0.0 2.0 0.02 1.86 1.86 97 1018.8
20210921013536 69 88 0.0 2.0 0.02 1.86 1.86 97 1018.8
20210921013035 69 228 0.0 1.0 0.02 1.86 1.86 97 1018.7
20210921012531 69 240 0.0 1.0 0.02 1.85 1.86 97 1018.7
20210921012032 69 240 0.0 1.0 0.01 1.85 1.85 97 1018.6
20210921011534 69 226 0.0 1.0 0.00 1.84 1.84 97 1018.6
20210921011031 69 197 0.0 2.0 0.00 1.84 1.84 97 1018.6
20210921010532 69 190 0.0 2.0 0.00 1.84 1.84 97 1018.5
20210921010021 69 152 0.0 2.0 0.00 1.84 1.84 97 1018.5
20210921005517 68 164 0.0 2.0 0.00 1.84 1.84 97 1018.5
20210921005017 69 288 0.0 3.0 0.00 1.84 1.84 97 1018.2
20210921004516 68 85 0.0 2.0 0.00 1.84 1.84 97 1018.2
20210921004016 68 124 0.0 2.0 0.00 1.84 1.84 97 1018.1
20210921003514 68 223 0.0 3.0 0.00 1.84 1.84 97 1018.1
20210921003008 68 265 0.0 3.0 0.00 1.84 1.84 97 1018.0
20210921002507 68 126 0.0 2.0 0.00 1.84 1.84 97 1018.0
20210921002004 68 275 0.0 2.0 0.01 1.84 1.84 97 1018.0
20210921001504 68 336 0.0 2.0 0.01 1.84 1.84 97 1017.9
20210921001004 69 316 0.0 2.0 0.01 1.84 1.84 97 1018.0
20210921000506 68 86 0.0 2.0 0.01 1.84 1.84 97 1018.0
20210920235940 68 239 0.0 3.0 0.01 1.84 1.84 97 1018.1
20210920235440 69 311 1.0 4.0 0.01 1.84 1.84 97 1018.1
20210920234938 69 200 2.0 6.0 0.01 1.84 1.84 97 1018.1
20210920234439 69 42 2.0 6.0 0.01 1.84 1.84 97 1018.0
20210920233935 69 275 1.0 5.0 0.01 1.84 1.84 97 1018.0
20210920233435 69 292 1.0 5.0 0.02 1.84 1.84 97 1018.0
20210920232931 70 96 1.0 4.0 0.02 1.84 1.84 97 1018.1
20210920232432 70 258 0.0 2.0 0.02 1.84 1.84 97 1018.1
20210920231932 70 186 0.0 2.0 0.01 1.83 1.83 97 1018.0
20210920231431 71 188 0.0 2.0 0.01 1.83 1.83 97 1017.9
20210920230923 71 132 0.0 2.0 0.01 1.83 1.83 97 1018.0
20210920230414 70 175 0.0 2.0 0.02 1.83 1.83 97 1017.9
20210920225910 71 304 0.0 2.0 0.03 1.83 1.83 97 1017.9
20210920225410 71 321 0.0 1.0 0.04 1.83 1.83 97 1017.9
20210920224909 71 100 0.0 2.0 0.04 1.83 1.83 97 1018.0
20210920224407 71 155 0.0 3.0 0.05 1.83 1.83 97 1017.9
20210920223906 71 126 0.0 3.0 0.06 1.83 1.83 97 1017.9
20210920223406 71 37 0.0 3.0 0.06 1.82 1.82 97 1018.0
20210920222904 71 101 0.0 3.0 0.06 1.82 1.82 97 1017.9
20210920222404 71 66 1.0 3.0 0.07 1.82 1.82 97 1017.8
20210920221902 71 46 0.0 2.0 0.07 1.82 1.82 97 1017.7
20210920221402 71 213 0.0 2.0 0.07 1.82 1.82 98 1017.6
20210920220900 71 258 0.0 1.0 0.07 1.82 1.82 97 1017.6
20210920220400 71 180 0.0 1.0 0.06 1.81 1.81 98 1017.6
20210920215900 71 198 0.0 1.0 0.05 1.80 1.80 97 1017.5
20210920215353 71 307 0.0 1.0 0.06 1.79 1.79 98 1017.5
20210920214853 71 113 0.0 2.0 0.06 1.78 1.78 98 1017.5
20210920214352 71 109 0.0 2.0 0.06 1.78 1.78 98 1017.5
20210920213843 71 346 0.0 1.0 0.06 1.77 1.77 98 1017.5
20210920213341 71 0 0.0 2.0 0.06 1.76 1.76 98 1017.5
20210920212841 71 321 0.0 2.0 0.07 1.76 1.76 97 1017.4
20210920212334 71 342 0.0 2.0 0.06 1.75 1.75 97 1017.4
20210920211832 71 248 0.0 1.0 0.07 1.75 1.75 97 1017.5
20210920211332 71 248 0.0 0.0 0.07 1.75 1.75 97 1017.5
20210920210831 71 248 0.0 1.0 0.08 1.75 1.75 97 1017.5
20210920210331 71 248 0.0 1.0 0.09 1.75 1.75 97 1017.5
20210920205832 71 265 0.0 1.0 0.09 1.74 1.75 97 1017.5
20210920205331 71 342 0.0 1.0 0.08 1.73 1.73 97 1017.5
20210920204831 71 300 0.0 1.0 0.08 1.72 1.72 97 1017.5
20210920204331 71 300 0.0 1.0 0.09 1.72 1.72 97 1017.5
20210920203821 71 5 0.0 1.0 0.08 1.71 1.71 97 1017.5
20210920203312 71 119 0.0 2.0 0.07 1.70 1.70 97 1017.6
20210920202810 71 68 0.0 2.0 0.07 1.69 1.69 97 1017.6
20210920202310 71 227 0.0 2.0 0.07 1.69 1.69 97 1017.6
20210920201809 71 274 0.0 2.0 0.06 1.68 1.68 97 1017.6
20210920201307 70 273 0.0 2.0 0.07 1.67 1.68 97 1017.6
20210920200806 71 311 0.0 2.0 0.06 1.67 1.67 97 1017.6
20210920200305 70 311 0.0 2.0 0.06 1.66 1.66 97 1017.6
20210920195804 70 135 0.0 1.0 0.09 1.66 1.66 97 1017.8
20210920195306 70 132 0.0 1.0 0.10 1.65 1.65 97 1017.8
20210920194805 70 246 0.0 1.0 0.10 1.64 1.64 97 1017.9
20210920194304 70 315 0.0 1.0 0.12 1.63 1.63 97 1017.9
20210920193803 70 137 0.0 1.0 0.15 1.63 1.63 97 1017.9
20210920193302 70 222 0.0 1.0 0.19 1.63 1.63 97 1017.9
20210920192801 70 250 0.0 3.0 0.24 1.62 1.62 97 1018.0
20210920192300 70 266 0.0 3.0 0.31 1.62 1.62 97 1018.0
20210920191751 70 169 1.0 2.0 0.38 1.62 1.62 97 1018.1
20210920191253 70 109 0.0 2.0 0.45 1.61 1.61 97 1018.2
20210920190744 70 40 0.0 2.0 0.45 1.60 1.60 97 1018.4
20210920190243 70 51 0.0 1.0 0.45 1.59 1.59 97 1018.5
20210920185738 70 51 0.0 2.0 0.43 1.57 1.57 97 1018.5
20210920185233 69 114 0.0 2.0 0.41 1.55 1.55 97 1018.5
20210920184716 70 79 0.0 1.0 0.39 1.53 1.53 97 1018.4
20210920184215 69 82 0.0 1.0 0.38 1.50 1.50 97 1018.4
20210920183706 69 84 0.0 1.0 0.41 1.46 1.47 97 1018.5
20210920183206 69 252 0.0 1.0 0.44 1.42 1.43 97 1018.6
20210920182706 69 244 0.0 3.0 0.47 1.36 1.37 97 1018.7
20210920182203 69 319 0.0 3.0 0.46 1.28 1.30 97 1018.9
20210920181702 69 286 0.0 2.0 0.42 1.20 1.23 97 1019.0
20210920181201 69 328 0.0 2.0 0.37 1.16 1.16 97 1019.2
20210920180700 69 306 0.0 1.0 0.40 1.15 1.15 97 1019.1
20210920180158 69 310 0.0 0.0 0.42 1.14 1.14 97 1019.2
20210920175653 69 310 0.0 1.0 0.44 1.14 1.14 97 1019.3
20210920175152 68 310 0.0 3.0 0.45 1.14 1.14 97 1019.4
20210920174644 68 310 0.0 3.0 0.44 1.13 1.13 96 1019.4
20210920174142 68 265 0.0 2.0 0.44 1.11 1.12 96 1019.6
20210920173632 68 202 0.0 2.0 0.39 1.04 1.05 96 1019.6
20210920173132 68 192 0.0 2.0 0.35 0.98 0.98 96 1019.6
20210920172632 68 194 0.0 2.0 0.28 0.88 0.89 96 1019.6
20210920172131 68 179 1.0 2.0 0.22 0.83 0.83 96 1019.7
20210920171631 69 352 1.0 2.0 0.20 0.81 0.81 96 1019.7
20210920171132 69 192 0.0 4.0 0.19 0.78 0.79 96 1019.7
20210920170633 69 253 1.0 4.0 0.16 0.74 0.75 96 1019.8
20210920170131 69 118 0.0 5.0 0.13 0.72 0.72 96 1019.8
20210920165631 69 266 1.0 5.0 0.11 0.70 0.70 96 1019.8
20210920165131 69 48 1.0 4.0 0.10 0.69 0.69 96 1019.8
20210920164631 70 125 1.0 3.0 0.10 0.69 0.69 96 1019.7
20210920164134 70 144 1.0 8.0 0.10 0.68 0.68 95 1019.6
20210920163632 71 61 2.0 8.0 0.10 0.65 0.66 96 1019.7
20210920163131 71 190 1.0 2.0 0.08 0.63 0.63 96 1019.6
20210920162630 72 73 1.0 2.0 0.08 0.61 0.61 97 1019.4
20210920162129 71 348 0.0 2.0 0.16 0.61 0.61 97 1019.5
20210920161631 71 157 0.0 1.0 0.21 0.61 0.61 97 1019.5
20210920161127 71 157 0.0 1.0 0.22 0.60 0.60 97 1019.5
20210920160627 71 202 0.0 1.0 0.22 0.59 0.59 97 1019.6
20210920160127 71 202 0.0 2.0 0.23 0.59 0.59 97 1019.5
20210920155624 71 202 0.0 2.0 0.24 0.59 0.59 97 1019.5
20210920155115 71 0 0.0 2.0 0.24 0.59 0.59 97 1019.6
20210920154615 71 333 0.0 3.0 0.24 0.58 0.58 97 1019.5
20210920154115 71 201 1.0 3.0 0.24 0.58 0.58 97 1019.6
20210920153613 71 28 0.0 3.0 0.23 0.55 0.56 97 1019.7
20210920153111 71 107 1.0 3.0 0.23 0.54 0.55 96 1019.7
20210920152610 71 0 0.0 2.0 0.22 0.51 0.53 96 1019.5
20210920152109 72 167 0.0 1.0 0.15 0.44 0.44 97 1019.4
20210920151611 72 5 0.0 4.0 0.11 0.39 0.40 97 1019.4
20210920151107 72 348 1.0 4.0 0.09 0.37 0.37 97 1019.3
20210920150607 72 45 1.0 3.0 0.10 0.36 0.37 97 1019.1
20210920150113 72 245 0.0 1.0 0.10 0.36 0.36 97 1019.1
20210920145607 72 195 0.0 2.0 0.10 0.35 0.35 97 1019.2
20210920145101 72 318 1.0 4.0 0.11 0.35 0.35 97 1019.3
20210920144559 72 47 1.0 4.0 0.10 0.34 0.34 97 1019.3
20210920144058 72 285 0.0 2.0 0.11 0.34 0.34 97 1019.3
20210920143550 72 232 0.0 1.0 0.12 0.33 0.33 97 1019.3
20210920143042 71 229 0.0 1.0 0.12 0.32 0.32 97 1019.2
20210920142541 71 180 0.0 2.0 0.12 0.31 0.31 97 1019.2
20210920142034 72 331 0.0 2.0 0.10 0.29 0.29 97 1019.2
20210920141532 72 190 0.0 1.0 0.10 0.28 0.28 97 1019.1
20210920141034 71 190 0.0 2.0 0.11 0.28 0.28 97 1018.9
20210920140531 71 215 0.0 2.0 0.10 0.27 0.27 97 1018.8
20210920140031 71 180 0.0 2.0 0.10 0.26 0.26 97 1018.8
20210920135525 71 136 0.0 1.0 0.10 0.25 0.25 97 1018.7
20210920135023 71 240 0.0 1.0 0.10 0.24 0.24 97 1018.7
20210920134522 71 202 0.0 1.0 0.10 0.23 0.23 97 1018.7
20210920134020 71 220 0.0 2.0 0.10 0.22 0.22 97 1018.6
20210920133518 71 128 0.0 2.0 0.12 0.21 0.21 97 1018.8
20210920133008 71 323 0.0 1.0 0.12 0.20 0.20 97 1018.7
20210920132508 71 289 0.0 1.0 0.12 0.19 0.19 97 1018.7
20210920132005 71 287 0.0 1.0 0.16 0.19 0.19 96 1018.7
20210920131505 71 236 0.0 2.0 0.16 0.18 0.18 96 1018.6
20210920131006 71 31 0.0 2.0 0.16 0.17 0.17 96 1018.5
20210920130504 71 42 1.0 2.0 0.16 0.17 0.17 96 1018.5
20210920130005 71 169 0.0 3.0 0.15 0.16 0.16 96 1018.5
20210920125502 71 242 0.0 3.0 0.14 0.15 0.15 96 1018.4
20210920125000 71 51 0.0 3.0 0.13 0.14 0.14 96 1018.4
20210920124458 71 352 0.0 3.0 0.12 0.13 0.13 96 1018.5
20210920123959 71 168 0.0 2.0 0.11 0.12 0.12 96 1018.4
20210920123456 71 311 0.0 2.0 0.08 0.09 0.09 96 1018.5
20210920122954 71 100 0.0 1.0 0.07 0.08 0.08 96 1018.4
20210920122446 71 227 0.0 1.0 0.06 0.07 0.07 96 1018.4
20210920121946 72 227 0.0 2.0 0.02 0.03 0.03 96 1018.1
20210920121438 72 294 0.0 2.0 0.01 0.02 0.02 96 1018.2
20210920120938 72 318 0.0 2.0 0.00 0.01 0.01 96 1018.1
20210920120433 72 163 0.0 1.0 0.00 0.01 0.01 96 1018.2
20210920115932 72 150 0.0 1.0 0.00 0.01 0.01 95 1018.2
20210920115431 72 344 0.0 1.0 0.00 0.01 0.01 96 1018.2
20210920114923 72 248 0.0 2.0 0.00 0.01 0.01 96 1018.0
20210920114421 72 232 0.0 2.0 0.01 0.01 0.01 96 1018.0
20210920113918 72 309 0.0 2.0 0.01 0.01 0.01 96 1017.8
20210920113416 72 290 0.0 1.0 0.01 0.01 0.01 96 1017.7
20210920112916 72 217 0.0 1.0 0.01 0.01 0.01 96 1017.8
20210920112406 72 177 0.0 2.0 0.01 0.01 0.01 96 1017.8
20210920111904 72 188 0.0 2.0 0.01 0.01 0.01 96 1017.8
20210920111404 72 288 0.0 2.0 0.01 0.01 0.01 96 1017.8
20210920110903 72 210 0.0 2.0 0.01 0.01 0.01 96 1017.8
20210920110405 72 224 0.0 2.0 0.01 0.01 0.01 95 1017.8
20210920105901 72 170 0.0 1.0 0.01 0.01 0.01 95 1017.7
20210920105358 72 170 0.0 2.0 0.01 0.01 0.01 95 1017.7
20210920104852 72 104 0.0 2.0 0.01 0.01 0.01 95 1017.8
20210920104349 72 81 0.0 2.0 0.00 0.00 0.00 95 1017.8
20210920103848 72 300 0.0 1.0 0.00 0.00 0.00 95 1017.8
20210920103334 72 300 0.0 2.0 0.00 0.00 0.00 95 1017.7
20210920102831 72 259 0.0 2.0 0.00 0.00 0.00 95 1017.7
20210920102332 72 200 0.0 5.0 0.00 0.00 0.00 95 1017.6
20210920101833 72 291 0.0 5.0 0.00 0.00 0.00 95 1017.6
20210920101331 72 291 0.0 2.0 0.00 0.00 0.00 95 1017.6
20210920100824 72 224 0.0 2.0 0.00 0.00 0.00 95 1017.5
20210920100323 72 156 0.0 1.0 0.00 0.00 0.00 95 1017.5
20210920095817 72 156 0.0 1.0 0.00 0.00 0.00 95 1017.6
20210920095315 72 42 0.0 2.0 0.00 0.00 0.00 95 1017.7
20210920094815 72 42 0.0 2.0 0.00 0.00 0.00 95 1017.8
20210920094313 72 315 0.0 2.0 0.00 0.00 0.00 95 1017.8
20210920093811 72 136 0.0 1.0 0.00 0.00 0.00 95 1017.8
20210920093312 71 136 0.0 1.0 0.00 0.00 0.00 95 1017.8
20210920092804 71 136 0.0 1.0 0.00 0.00 0.00 95 1017.7
20210920092305 71 100 0.0 1.0 0.00 0.00 0.00 95 1017.7
20210920091801 71 126 0.0 1.0 0.00 0.00 0.00 95 1017.7
20210920091302 71 127 0.0 2.0 0.00 0.00 0.00 95 1017.7
20210920090801 71 15 0.0 2.0 0.00 0.00 0.00 95 1017.7
20210920090303 71 132 0.0 1.0 0.00 0.00 0.00 95 1017.6
20210920085802 71 132 0.0 1.0 0.00 0.00 0.00 95 1017.6
20210920085305 71 312 0.0 1.0 0.00 0.00 0.00 95 1017.6
20210920084805 71 321 0.0 1.0 0.00 0.00 0.00 96 1017.6
20210920084304 72 313 0.0 1.0 0.00 0.00 0.00 96 1017.6
20210920083802 72 317 0.0 1.0 0.00 0.00 0.00 96 1017.6
20210920083304 72 317 0.0 2.0 0.00 0.00 0.00 96 1017.7
20210920082804 72 300 0.0 2.0 0.00 0.00 0.00 96 1017.8
20210920082306 72 300 0.0 2.0 0.00 0.00 0.00 96 1017.8
20210920081805 72 183 0.0 1.0 0.00 0.00 0.00 96 1017.8
20210920081304 71 169 0.0 1.0 0.00 0.00 0.00 96 1017.9
20210920080803 71 115 0.0 2.0 0.00 0.00 0.00 96 1018.0
20210920080249 71 115 0.0 2.0 0.00 0.00 0.00 96 1018.0
20210920075744 72 336 0.0 1.0 0.00 0.00 0.00 96 1018.0
20210920075241 72 336 0.0 0.0 0.00 0.00 0.00 96 1018.0
20210920074739 72 336 0.0 0.0 0.00 0.00 0.00 96 1018.0